Overview Statistics Trail Chart Weather Telemetry Raw packets
 

This is the latest recevied weather packets stored in our database for station/object OE5MMP-13. If no packets are shown the sender has not sent any weather packets the latest 10 day(s).

<< 14 15 16 17 18 19 20 >>
Time Temp. Humidity Pressure Rain* Wind** Luminosity Snow
1788453192 23.33° C 52% 1021.4 hPa 0 mm - 42 W/m² -
1788452592 23.33° C 52% 1021.4 hPa 0 mm - 53 W/m² -
1788451992 23.33° C 51% 1021.3 hPa 0 mm - 88 W/m² -
1788451392 23.33° C 50% 1021.2 hPa 0 mm - 97 W/m² -
1788450792 23.89° C 50% 1021.5 hPa 0 mm - 283 W/m² -
1788450192 23.89° C 51% 1021.5 hPa 0 mm - 194 W/m² -
1788449592 23.89° C 52% 1021.5 hPa 0 mm - 152 W/m² -
1788448992 23.89° C 51% 1021.5 hPa 0 mm - 251 W/m² -
1788448392 23.89° C 53% 1021.7 hPa 0 mm - 216 W/m² -
1788447792 23.89° C 54% 1021.8 hPa 0 mm - 316 W/m² -
1788447192 23.89° C 54% 1021.8 hPa 0 mm - 392 W/m² -
1788446592 23.89° C 54% 1021.8 hPa 0 mm - 312 W/m² -
1788445991 23.89° C 53% 1021.7 hPa 0 mm - 550 W/m² -
1788445392 23.89° C 55% 1021.8 hPa 0 mm - 508 W/m² -
1788444792 23.89° C 54% 1021.8 hPa 0 mm - 251 W/m² -
1788444192 23.89° C 54% 1021.9 hPa 0 mm - 240 W/m² -
1788443592 24.44° C 53% 1022 hPa 0 mm - 334 W/m² -
1788442992 24.44° C 52% 1022.1 hPa 0 mm - 440 W/m² -
1788442391 23.89° C 54% 1021.8 hPa 0 mm - 281 W/m² -
1788441791 24.44° C 55% 1022.1 hPa 0 mm - 679 W/m² -
1788441191 23.33° C 55% 1022.1 hPa 0 mm - 662 W/m² -
1788440591 23.33° C 54% 1022.2 hPa 0 mm - 385 W/m² -
1788439991 23.89° C 53% 1022.3 hPa 0 mm - 343 W/m² -
1788439392 23.89° C 56% 1022.4 hPa 0 mm - 805 W/m² -
1788438791 23.89° C 54% 1022.4 hPa 0 mm - 504 W/m² -

* Rain latest hour (hover to see other rain measurements)
** Current wind speed in m/s (hover to see current wind gust speed)